Location: Newark
(42.7133°N, 87.7910°W)
Time: 19:04:08
(UTC+00:00)

Tiros 1 - Pass Details

Date: 23 September 2019
Orbit: 630 x 664 km, 48.4° (Epoch: 21 October)

Event Time Altitude Azimuth Distance (km) Brightness Sun altitude
Rises 16:52:35 0° 216° (SW) 2,973 10.9 45.6°
Reaches altitude 10° 16:55:04 10° 208° (SSW) 2,060 10.4 45.8°
Maximum altitude 16:59:25 36° 141° (SE) 1,022 9.9 46.0°
Drops below altitude 10° 17:03:45 10° 75° (ENE) 2,050 9.8 46.2°
Sets 17:06:13 0° 67° (ENE) 2,957 10.5 46.3°
